EW4258 Weather Reports


Display with metric or nautical units.
time (UTC)temp
F
wind
direction
speed
MPH
gust
MPH
rain 1hr
in
rain 24hr
in
rain mn
in
humidity
%
barometer
mb
20260509015112 46 112 0.0 0.0 0.00 0.00 0.00 63 1017.2
20260509014114 46 157 0.0 0.0 0.00 0.00 0.00 63 1017.1
20260509013112 46 45 0.0 0.0 0.00 0.00 0.00 63 1017.1
20260509010112 47 202 0.0 0.0 0.00 0.00 0.00 62 1017.4
20260509005112 47 135 0.0 0.0 0.00 0.00 0.00 62 1017.4
20260509004113 47 315 0.0 0.0 0.00 0.00 0.00 62 1017.4
20260509003112 47 157 0.0 0.0 0.00 0.00 0.00 62 1017.4
20260509001112 47 67 0.0 1.0 0.00 0.00 0.00 62 1017.8
20260509000112 48 67 0.0 1.0 0.00 0.00 0.00 61 1017.6
20260508235111 47 135 0.0 0.0 0.00 0.00 0.00 60 1017.6
20260508234112 48 112 0.0 0.0 0.00 0.00 0.00 60 1017.6
20260508233111 48 90 0.0 1.0 0.00 0.00 0.00 60 1017.6
20260508231111 48 135 0.0 0.0 0.00 0.00 0.00 59 1017.5
20260508230111 49 67 0.0 1.0 0.00 0.00 0.00 59 1017.6
20260508224111 49 45 0.0 1.0 0.00 0.00 0.00 59 1017.4
20260508223111 50 225 1.0 0.0 0.00 0.00 0.00 58 1017.4
20260508222111 50 90 1.0 2.0 0.00 0.00 0.00 58 1017.4
20260508221113 51 67 0.0 1.0 0.00 0.00 0.00 57 1017.4
20260508220114 51 135 0.0 0.0 0.00 0.00 0.00 57 1017.2
20260508215114 51 135 0.0 0.0 0.00 0.00 0.00 56 1017.2
20260508214114 51 202 0.0 0.0 0.00 0.00 0.00 56 1016.9
20260508213114 52 67 0.0 0.0 0.00 0.00 0.00 54 1016.9
20260508211114 53 270 0.0 0.0 0.00 0.00 0.00 53 1016.9
20260508210114 53 157 0.0 0.0 0.00 0.00 0.00 52 1016.8
20260508205114 54 90 0.0 0.0 0.00 0.00 0.00 52 1016.8
20260508204114 54 112 0.0 0.0 0.00 0.00 0.00 52 1016.8
20260508202114 55 202 0.0 1.0 0.00 0.00 0.00 51 1016.6
20260508201114 55 292 0.0 0.0 0.00 0.00 0.00 50 1016.6
20260508200114 56 135 1.0 2.0 0.00 0.00 0.00 49 1016.2
20260508195114 57 202 0.0 0.0 0.00 0.00 0.00 49 1016.2
20260508194114 57 180 0.0 0.0 0.00 0.00 0.00 48 1015.9
20260508193113 58 157 0.0 0.0 0.00 0.00 0.00 47 1015.9
20260508192113 58 180 0.0 0.0 0.00 0.00 0.00 45 1015.6
20260508190113 60 202 1.0 0.0 0.00 0.00 0.00 43 1015.5
20260508185113 61 67 0.0 2.0 0.00 0.00 0.00 42 1015.5
20260508184113 62 270 1.0 0.0 0.00 0.00 0.00 42 1015.2
20260508183114 62 292 2.0 3.0 0.00 0.00 0.00 41 1015.2
20260508182112 62 292 2.0 1.0 0.00 0.00 0.00 41 1015.1
20260508181112 63 360 2.0 0.0 0.00 0.00 0.00 40 1015.1
20260508180112 63 315 2.0 3.0 0.00 0.00 0.00 40 1014.9
20260508175112 63 45 2.0 4.0 0.00 0.00 0.00 40 1014.9
20260508174112 64 315 3.0 6.0 0.00 0.00 0.00 39 1014.7
20260508173112 64 360 3.0 3.0 0.00 0.00 0.00 39 1014.7
20260508172112 64 337 3.0 4.0 0.00 0.00 0.00 39 1014.6
20260508171113 65 337 3.0 8.0 0.00 0.00 0.00 38 1014.6
20260508170112 65 292 4.0 4.0 0.00 0.00 0.00 38 1014.6
20260508165112 65 22 4.0 4.0 0.00 0.00 0.00 38 1014.6
20260508163112 66 360 4.0 3.0 0.00 0.00 0.00 38 1014.5
20260508162112 67 225 4.0 5.0 0.00 0.00 0.00 39 1014.4
20260508161111 67 315 4.0 6.0 0.00 0.00 0.00 38 1014.4
20260508155111 67 247 4.0 3.0 0.00 0.00 0.00 38 1014.3
20260508154111 67 337 3.0 7.0 0.00 0.00 0.00 39 1014.3
20260508153111 67 315 3.0 6.0 0.00 0.00 0.00 39 1014.3
20260508152111 67 360 3.0 4.0 0.00 0.00 0.00 39 1014.6
20260508150111 67 270 4.0 7.0 0.00 0.00 0.00 38 1014.6
20260508145111 67 315 3.0 6.0 0.00 0.00 0.00 39 1014.6
20260508143111 67 315 3.0 6.0 0.00 0.00 0.00 38 1014.4
20260508140110 67 315 3.0 5.0 0.00 0.00 0.00 38 1014.6
20260508135110 67 337 4.0 5.0 0.00 0.00 0.00 38 1014.6
20260508134110 68 337 5.0 7.0 0.00 0.00 0.00 38 1014.9
20260508133110 68 315 4.0 8.0 0.00 0.00 0.00 38 1014.9
20260508132110 68 337 4.0 6.0 0.00 0.00 0.00 37 1014.8
20260508131110 69 337 4.0 6.0 0.00 0.00 0.00 37 1014.8
20260508130110 69 202 4.0 4.0 0.00 0.00 0.00 36 1014.8
20260508125110 69 360 4.0 7.0 0.00 0.00 0.00 36 1014.8
20260508124114 68 225 3.0 6.0 0.00 0.00 0.00 35 1015.0
20260508123114 68 247 3.0 3.0 0.00 0.00 0.00 36 1015.0
20260508122114 68 202 3.0 2.0 0.00 0.00 0.00 36 1014.8
20260508121114 68 315 3.0 3.0 0.00 0.00 0.00 36 1014.8
20260508120114 69 157 1.0 1.0 0.00 0.00 0.00 39 1014.8
20260508115116 68 225 2.0 2.0 0.00 0.00 0.00 39 1014.8
20260508114114 68 225 2.0 4.0 0.00 0.00 0.00 42 1015.0
20260508113115 68 247 4.0 4.0 0.00 0.00 0.00 42 1015.0
20260508112114 68 270 3.0 3.0 0.00 0.00 0.00 41 1015.0
20260508111114 67 225 2.0 6.0 0.00 0.00 0.00 45 1015.0
20260508110115 66 360 2.0 2.0 0.00 0.00 0.00 44 1015.3
20260508105113 65 225 2.0 4.0 0.00 0.00 0.00 46 1015.3
20260508104113 65 225 2.0 2.0 0.00 0.00 0.00 47 1015.6
20260508103113 64 67 1.0 2.0 0.00 0.00 0.00 48 1015.6
20260508102113 64 135 1.0 2.0 0.00 0.00 0.00 49 1015.8
20260508101113 63 247 1.0 0.0 0.00 0.00 0.00 50 1015.8
20260508100113 62 247 1.0 3.0 0.00 0.00 0.00 50 1016.1
20260508095113 60 247 1.0 0.0 0.00 0.00 0.00 48 1016.1
20260508094113 60 202 3.0 3.0 0.00 0.00 0.00 50 1016.4
20260508092113 59 247 2.0 2.0 0.00 0.00 0.00 52 1016.7
20260508091114 58 135 2.0 2.0 0.00 0.00 0.00 52 1016.7
20260508090113 58 247 2.0 4.0 0.00 0.00 0.00 53 1016.8
20260508085112 56 135 1.0 2.0 0.00 0.00 0.00 52 1016.8
20260508083112 56 135 2.0 2.0 0.00 0.00 0.00 53 1016.8
20260508082112 55 337 1.0 1.0 0.00 0.00 0.00 53 1016.9
20260508081112 56 180 2.0 2.0 0.00 0.00 0.00 55 1016.9
20260508080112 55 135 3.0 5.0 0.00 0.00 0.00 55 1017.2
20260508075112 55 90 3.0 4.0 0.00 0.00 0.00 55 1017.2
20260508074112 55 90 2.0 2.0 0.00 0.00 0.00 57 1017.2
20260508073112 54 202 1.0 0.0 0.00 0.00 0.00 60 1017.2
20260508072112 52 90 1.0 1.0 0.00 0.00 0.00 60 1017.2
20260508071112 51 135 1.0 1.0 0.00 0.00 0.00 60 1017.2
20260508070112 51 67 2.0 2.0 0.00 0.00 0.00 60 1017.2
20260508065111 50 180 2.0 2.0 0.00 0.00 0.00 61 1017.2
20260508064111 50 67 2.0 3.0 0.00 0.00 0.00 62 1016.8
20260508063111 50 247 1.0 0.0 0.00 0.00 0.00 64 1016.8
20260508060112 49 157 2.0 3.0 0.00 0.00 0.00 68 1017.0
20260508055111 48 157 1.0 1.0 0.00 0.00 0.00 69 1017.0
20260508054111 48 202 0.0 2.0 0.00 0.00 0.00 69 1017.1
20260508052111 47 180 0.0 1.0 0.00 0.00 0.00 69 1017.1
20260508045111 47 90 0.0 0.0 0.00 0.00 0.00 70 1016.8
20260508043110 47 247 1.0 2.0 0.00 0.00 0.00 70 1016.7
20260508041110 46 67 0.0 0.0 0.00 0.00 0.00 69 1016.6
20260508040110 46 135 1.0 2.0 0.00 0.00 0.00 69 1016.5
20260508035111 47 90 1.0 2.0 0.00 0.00 0.00 69 1016.5
20260508034112 46 157 0.0 0.0 0.00 0.00 0.00 70 1016.4
20260508033112 46 180 0.0 0.0 0.00 0.00 0.00 70 1016.4
20260508032111 46 202 0.0 0.0 0.00 0.00 0.00 70 1016.3
20260508031111 46 202 0.0 0.0 0.00 0.00 0.00 70 1016.3
20260508030111 46 202 1.0 1.0 0.00 0.00 0.00 70 1016.6
20260508025111 46 225 0.0 2.0 0.00 0.00 0.00 70 1016.6
20260508024111 46 157 2.0 0.0 0.00 0.00 0.00 69 1016.6
20260508023111 46 112 2.0 3.0 0.00 0.00 0.00 68 1016.6
20260508022111 47 157 0.0 1.0 0.00 0.00 0.00 70 1016.6